Location: *
(52.2090°N, 4.1550°W)
Time: 05:13:41
(UTC+00:00)

Cosmos 2360 Rocket - Pass Details

Date: 19 July 2019
Orbit: 835 x 844 km, 71.0° (Epoch: 21 August)

Event Time Altitude Azimuth Distance (km) Brightness Sun altitude
Rises 22:26:13 0° 221° (SW) 3,384 5.1 -12.7°
Reaches altitude 10° 22:28:41 10° 225° (SW) 2,452 4.4 -12.9°
Maximum altitude 22:34:15 61° 306° (NW) 948 2.7 -13.3°
Drops below altitude 10° 22:39:51 10° 27° (NNE) 2,461 5.2 -13.6°
Sets 22:42:20 0° 31° (NNE) 3,398 5.9 -13.8°
